Terminal Aerodrome Forecast
Issued by NWS Wilmington, OH

Current Version | Previous Version | Graphics & Text | Print | Product List | Glossary On
Versions: 1 2 3 4 5 6 7 8 9 10 11 12 13 14 15 16 17 18 19 20 21 22 23 24 25
000
FTUS41 KILN 031133
TAFILN
TAF
KILN 031133Z 0312/0412 04012G18KT P6SM VCSH BKN050
      TEMPO 0312/0313 -TSRA BKN035CB
     FM031400 22012KT P6SM BKN040
     FM031900 27014G22KT P6SM VCTS BKN050CB
     FM032300 29012G18KT P6SM BKN050
     FM040200 32008KT P6SM SCT050
     FM041000 VRB03KT P6SM SKC=

USA.gov is the U.S. government's official web portal to all federal, state and local government web resources and services.